When you browse on this site, cookies collect data to enhance your experience and personalize the content and advertising you see.
Visit our Privacy Policy to learn more. By continuing to use the site, you agree to this use of cookies and data.
  • In Latvia
  • List of Countries
  • For 7 days
  • Water Temperature
  • Weather Map
  • Weather Widgets
  • user-avatar
    Login

    Hourly Weather Szombathely

    Today, 20 September, Friday

    Time Temperature Precipitation Wind Pressure Humidity
    00:00 +8°C° 0 mm 3 mps 752 mmHg 64%
    01:00 +8°C° 0 mm 3 mps 752 mmHg 65%
    02:00 +8°C° 0 mm 3 mps 752 mmHg 66%
    03:00 +7°C° 0 mm 3 mps 752 mmHg 67%
    04:00 +7°C° 0 mm 3 mps 751 mmHg 68%
    05:00 +8°C° 0 mm 3 mps 752 mmHg 66%
    06:00 +8°C° 0 mm 3 mps 752 mmHg 65%
    07:00 +9°C° 0 mm 2 mps 752 mmHg 62%
    08:00 +11°C° 0 mm 3 mps 752 mmHg 54%
    09:00 +13°C° 0 mm 3 mps 752 mmHg 47%
    10:00 +16°C° 0 mm 3 mps 752 mmHg 40%
    11:00 +17°C° 0 mm 3 mps 752 mmHg 37%
    12:00 +17°C° 0 mm 2 mps 751 mmHg 34%
    13:00 +18°C° 0 mm 2 mps 751 mmHg 32%
    14:00 +18°C° 0 mm 2 mps 750 mmHg 32%
    15:00 +18°C° 0 mm 2 mps 750 mmHg 32%
    16:00 +18°C° 0 mm 2 mps 750 mmHg 33%
    17:00 +16°C° 0 mm 2 mps 750 mmHg 37%
    18:00 +14°C° 0 mm 1 mps 750 mmHg 42%
    19:00 +12°C° 0 mm 1 mps 751 mmHg 47%
    20:00 +12°C° 0 mm 1 mps 751 mmHg 48%
    21:00 +11°C° 0 mm 1 mps 751 mmHg 49%
    22:00 +11°C° 0 mm 1 mps 750 mmHg 50%
    23:00 +10°C° 0 mm 1 mps 751 mmHg 52%

    Tomorrow, 21 September, Saturday

    Time Temperature Precipitation Wind Pressure Humidity
    00:00 +9°C° 0 mm 0 mps 751 mmHg 54%
    01:00 +8°C° 0 mm 0 mps 751 mmHg 55%
    02:00 +8°C° 0 mm 0 mps 751 mmHg 57%
    03:00 +9°C° 0 mm 1 mps 751 mmHg 58%
    04:00 +9°C° 0 mm 1 mps 750 mmHg 59%
    05:00 +9°C° 0 mm 1 mps 750 mmHg 58%
    06:00 +10°C° 0 mm 1 mps 750 mmHg 57%
    07:00 +11°C° 0 mm 1 mps 750 mmHg 56%
    08:00 +13°C° 0 mm 2 mps 750 mmHg 49%
    09:00 +15°C° 0 mm 2 mps 750 mmHg 42%
    10:00 +17°C° 0 mm 3 mps 750 mmHg 34%
    11:00 +18°C° 0 mm 3 mps 750 mmHg 33%
    12:00 +19°C° 0 mm 4 mps 749 mmHg 31%
    13:00 +20°C° 0 mm 4 mps 749 mmHg 30%
    14:00 +20°C° 0 mm 4 mps 748 mmHg 31%
    15:00 +20°C° 0 mm 4 mps 748 mmHg 33%
    16:00 +20°C° 0 mm 4 mps 747 mmHg 34%
    17:00 +18°C° 0 mm 3 mps 747 mmHg 40%
    18:00 +16°C° 0 mm 3 mps 747 mmHg 46%
    19:00 +14°C° 0 mm 2 mps 747 mmHg 52%
    20:00 +13°C° 0 mm 2 mps 747 mmHg 54%
    21:00 +12°C° 0 mm 2 mps 747 mmHg 56%
    22:00 +10°C° 0 mm 2 mps 747 mmHg 59%
    23:00 +10°C° 0 mm 2 mps 747 mmHg 60%

    Day after tomorrow, 22 September, Sunday

    Time Temperature Precipitation Wind Pressure Humidity
    00:00 +9°C° 0 mm 2 mps 747 mmHg 61%
    01:00 +9°C° 0 mm 2 mps 746 mmHg 63%
    02:00 +9°C° 0 mm 2 mps 746 mmHg 63%
    03:00 +8°C° 0 mm 2 mps 746 mmHg 63%
    04:00 +8°C° 0 mm 2 mps 745 mmHg 63%
    05:00 +8°C° 0 mm 2 mps 745 mmHg 61%
    06:00 +9°C° 0 mm 2 mps 745 mmHg 59%
    07:00 +9°C° 0 mm 2 mps 745 mmHg 57%
    08:00 +12°C° 0 mm 3 mps 745 mmHg 51%
    09:00 +14°C° 0 mm 3 mps 745 mmHg 45%
    10:00 +17°C° 0 mm 4 mps 745 mmHg 39%
    11:00 +19°C° 0 mm 4 mps 744 mmHg 38%
    12:00 +20°C° 0 mm 4 mps 744 mmHg 36%
    13:00 +22°C° 0 mm 5 mps 743 mmHg 35%
    14:00 +22°C° 0 mm 5 mps 743 mmHg 39%
    15:00 +22°C° 0 mm 4 mps 742 mmHg 42%
    16:00 +22°C° 0 mm 4 mps 741 mmHg 46%
    17:00 +20°C° 0 mm 4 mps 741 mmHg 53%
    18:00 +19°C° 0 mm 3 mps 741 mmHg 59%
    19:00 +17°C° 0 mm 3 mps 741 mmHg 66%
    20:00 +17°C° 0 mm 3 mps 741 mmHg 70%
    21:00 +16°C° 0 mm 3 mps 741 mmHg 74%
    22:00 +14°C° 0 mm 3 mps 741 mmHg 78%
    23:00 +14°C° 0 mm 3 mps 740 mmHg 81%

    23 September, Monday

    Time Temperature Precipitation Wind Pressure Humidity
    00:00 +13°C° 0 mm 3 mps 740 mmHg 84%
    01:00 +13°C° 0 mm 3 mps 740 mmHg 87%
    02:00 +13°C° 0 mm 3 mps 739 mmHg 88%
    03:00 +13°C° 0 mm 2 mps 739 mmHg 89%
    04:00 +13°C° 0 mm 2 mps 739 mmHg 91%
    05:00 +14°C° 0 mm 2 mps 739 mmHg 88%
    06:00 +14°C° 0 mm 2 mps 739 mmHg 85%
    07:00 +15°C° 0 mm 2 mps 739 mmHg 81%
    08:00 +17°C° 0 mm 2 mps 739 mmHg 75%
    09:00 +19°C° 0 mm 2 mps 739 mmHg 68%
    10:00 +20°C° 0 mm 2 mps 739 mmHg 61%
    11:00 +21°C° 0 mm 2 mps 739 mmHg 58%
    12:00 +23°C° 0 mm 2 mps 739 mmHg 55%
    13:00 +24°C° 0 mm 3 mps 738 mmHg 52%
    14:00 +24°C° 0 mm 3 mps 738 mmHg 53%
    15:00 +22°C° 0 mm 4 mps 738 mmHg 54%
    16:00 +22°C° 0 mm 5 mps 738 mmHg 55%
    17:00 +20°C° 0.1 mm 5 mps 739 mmHg 59%
    18:00 +19°C° 0.1 mm 6 mps 739 mmHg 62%
    19:00 +16°C° 0.1 mm 6 mps 739 mmHg 65%
    20:00 +15°C° 0.7 mm 5 mps 739 mmHg 71%
    21:00 +15°C° 0.7 mm 4 mps 740 mmHg 76%
    22:00 +14°C° 0.7 mm 3 mps 740 mmHg 82%
    23:00 +14°C° 1.6 mm 3 mps 740 mmHg 85%

    24 September, Tuesday

    Time Temperature Precipitation Wind Pressure Humidity
    00:00 +13°C° 1.6 mm 3 mps 740 mmHg 89%
    01:00 +13°C° 1.6 mm 4 mps 740 mmHg 92%
    02:00 +13°C° 0.7 mm 4 mps 740 mmHg 92%
    03:00 +13°C° 0.7 mm 3 mps 740 mmHg 91%
    04:00 +13°C° 0.7 mm 3 mps 740 mmHg 91%
    05:00 +13°C° 0.5 mm 3 mps 740 mmHg 90%
    06:00 +13°C° 0.5 mm 4 mps 740 mmHg 90%
    07:00 +13°C° 0.5 mm 4 mps 740 mmHg 89%
    08:00 +14°C° 0 mm 4 mps 740 mmHg 84%
    09:00 +17°C° 0 mm 4 mps 741 mmHg 80%
    10:00 +18°C° 0 mm 4 mps 741 mmHg 75%
    11:00 +19°C° 0.1 mm 4 mps 741 mmHg 69%
    12:00 +20°C° 0.1 mm 4 mps 741 mmHg 62%
    13:00 +21°C° 0.1 mm 5 mps 740 mmHg 56%
    14:00 +21°C° 0.1 mm 4 mps 740 mmHg 57%
    15:00 +21°C° 0.1 mm 4 mps 740 mmHg 57%
    16:00 +21°C° 0.1 mm 3 mps 740 mmHg 58%
    17:00 +19°C° 0 mm 3 mps 740 mmHg 65%
    18:00 +17°C° 0 mm 2 mps 740 mmHg 72%
    19:00 +16°C° 0 mm 1 mps 740 mmHg 79%
    20:00 +15°C° 0 mm 1 mps 740 mmHg 80%
    21:00 +15°C° 0 mm 1 mps 740 mmHg 82%
    22:00 +15°C° 0 mm 1 mps 740 mmHg 84%
    23:00 +14°C° 0 mm 1 mps 740 mmHg 85%

    25 September, Wednesday

    Time Temperature Precipitation Wind Pressure Humidity
    00:00 +14°C° 0 mm 1 mps 740 mmHg 87%
    01:00 +14°C° 0 mm 1 mps 740 mmHg 88%
    02:00 +14°C° 0 mm 1 mps 740 mmHg 89%
    03:00 +13°C° 0 mm 1 mps 740 mmHg 89%
    04:00 +13°C° 0 mm 1 mps 739 mmHg 90%
    05:00 +13°C° 0 mm 1 mps 740 mmHg 88%
    06:00 +14°C° 0 mm 1 mps 740 mmHg 87%
    07:00 +14°C° 0 mm 1 mps 740 mmHg 85%
    08:00 +15°C° 0 mm 1 mps 740 mmHg 82%
    09:00 +16°C° 0 mm 1 mps 740 mmHg 78%
    10:00 +18°C° 0 mm 1 mps 740 mmHg 74%
    11:00 +19°C° 0 mm 1 mps 740 mmHg 72%
    12:00 +19°C° 0 mm 1 mps 740 mmHg 70%
    13:00 +20°C° 0 mm 1 mps 740 mmHg 68%
    14:00 +20°C° 0 mm 1 mps 740 mmHg 66%
    15:00 +20°C° 0 mm 1 mps 740 mmHg 65%
    16:00 +21°C° 0 mm 1 mps 739 mmHg 63%
    17:00 +20°C° 0 mm 1 mps 740 mmHg 67%
    18:00 +19°C° 0 mm 1 mps 740 mmHg 72%
    19:00 +18°C° 0 mm 1 mps 740 mmHg 76%
    20:00 +18°C° 0 mm 1 mps 740 mmHg 76%
    21:00 +18°C° 0 mm 1 mps 741 mmHg 76%
    22:00 +18°C° 0 mm 1 mps 741 mmHg 76%
    23:00 +16°C° 0.2 mm 1 mps 741 mmHg 79%
    Show more